This demonstration page uses our WeatherBlox Daily Observations layout. Learn more.

38.88101, -77.10428

Hourly Observations for August 14, 2015

Temp ( °F °C ) Dew Point ( °F °C ) Humidity (%) Winds ( mph kmh ) Pressure ( in mb ) Visibility ( mi km ) Precip ( " mm )
12:52 am 00:52 Mostly Clear 70 21.1 56 13.3 61 61 Calm 30.16 1021 10 16.0934 0 0
1:52 am 01:52 Mostly Clear 69 20.6 57 13.9 66 66 Calm 30.16 1021 10 16.0934 0 0
2:52 am 02:52 Mostly Clear 67 19.4 60 15.6 79 79 Calm 30.16 1021 10 16.0934 0 0
3:52 am 03:52 Mostly Clear 66 18.9 57 13.9 73 73 SW 3 6 30.15 1021 10 16.0934 0 0
4:52 am 04:52 Clear 66 18.9 57 13.9 73 73 N 5 7 30.16 1021 10 16.0934 0 0
5:52 am 05:52 Mostly Clear 66 18.9 57 13.9 73 73 Calm 30.17 1022 10 16.0934 0 0
6:52 am 06:52 Mostly Sunny 65 18.3 57 13.9 76 76 Calm 30.19 1022 10 16.0934 0 0
7:52 am 07:52 Mostly Sunny 70 21.1 60 15.6 71 71 Calm 30.2 1023 10 16.0934 0 0
8:52 am 08:52 Mostly Sunny 72 22.2 62 16.7 71 71 Calm 30.21 1023 10 16.0934 0 0
9:52 am 09:52 Mostly Sunny 75 23.9 61 16.1 62 62 E 3 6 30.22 1023 10 16.0934 0 0
10:52 am 10:52 Partly Cloudy 80 26.7 60 15.6 51 51 E 5 7 30.21 1023 10 16.0934 0 0
11:52 am 11:52 Partly Cloudy 83 28.3 57 13.9 41 41 E 3 6 30.21 1023 10 16.0934 0 0
12:52 pm 12:52 Partly Cloudy 85 29.4 56 13.3 37 37 E 5 7 30.19 1022 10 16.0934 0 0
1:52 pm 13:52 Partly Cloudy 85 29.4 57 13.9 39 39 SSE 6 9 30.17 1022 10 16.0934 0 0
2:52 pm 14:52 Mostly Sunny 86 30 58 14.4 39 39 S 7 11 30.16 1021 10 16.0934 0 0
3:52 pm 15:52 Mostly Sunny 87 30.6 58 14.4 37 37 VRB 6 9 30.14 1021 10 16.0934 0 0
4:52 pm 16:52 Mostly Sunny 87 30.6 59 15 39 39 S 8 13 30.13 1020 10 16.0934 0 0
5:52 pm 17:52 Mostly Sunny 85 29.4 59 15 42 42 S 10 17 30.13 1020 10 16.0934 0 0
6:52 pm 18:52 Mostly Sunny 84 28.9 59 15 43 43 S 8 13 30.11 1020 10 16.0934 0 0
7:52 pm 19:52 Mostly Sunny 81 27.2 56 13.3 42 42 S 8 13 30.12 1020 10 16.0934 0 0
8:52 pm 20:52 Clear 78 25.6 61 16.1 56 56 SSE 6 9 30.13 1020 10 16.0934 0 0
9:52 pm 21:52 Clear 77 25 60 15.6 56 56 SSE 8 13 30.15 1021 10 16.0934 0 0
10:52 pm 22:52 Clear 75 23.9 61 16.1 62 62 S 8 13 30.16 1021 10 16.0934 0 0
11:52 pm 23:52 Clear 73 22.8 62 16.7 69 69 SSW 5 7 30.15 1021 10 16.0934 0 0

Powered by AerisWeather